When you browse on this site, cookies collect data to enhance your experience and personalize the content and advertising you see.
Visit our Privacy Policy to learn more. By continuing to use the site, you agree to this use of cookies and data.
  • In United Kingdom
  • List of Countries
  • For 7 days
  • Water Temperature
  • Weather Map
  • Weather Widgets
  • user-avatar
    Login

    Hourly Weather Yangishahar

    Today, 19 August, Monday

    Time Temperature Precipitation Wind Pressure Humidity
    00:00 +20°C° 0 mm 3 mps 701 mmHg 45%
    01:00 +19°C° 0 mm 2 mps 701 mmHg 45%
    02:00 +19°C° 0 mm 2 mps 700 mmHg 44%
    03:00 +18°C° 0 mm 2 mps 700 mmHg 44%
    04:00 +18°C° 0 mm 2 mps 700 mmHg 43%
    05:00 +18°C° 0 mm 2 mps 700 mmHg 42%
    06:00 +21°C° 0 mm 2 mps 701 mmHg 37%
    07:00 +24°C° 0 mm 2 mps 702 mmHg 31%
    08:00 +27°C° 0 mm 2 mps 702 mmHg 25%
    09:00 +29°C° 0 mm 2 mps 702 mmHg 23%
    10:00 +30°C° 0 mm 2 mps 702 mmHg 20%
    11:00 +32°C° 0 mm 1 mps 702 mmHg 17%
    12:00 +34°C° 0 mm 2 mps 702 mmHg 16%
    13:00 +34°C° 0 mm 2 mps 702 mmHg 15%
    14:00 +35°C° 0 mm 2 mps 701 mmHg 13%
    15:00 +33°C° 0 mm 4 mps 701 mmHg 18%
    16:00 +30°C° 0 mm 6 mps 701 mmHg 23%
    17:00 +28°C° 0 mm 7 mps 701 mmHg 28%
    18:00 +27°C° 0 mm 6 mps 701 mmHg 30%
    19:00 +26°C° 0 mm 5 mps 701 mmHg 33%
    20:00 +25°C° 0 mm 4 mps 702 mmHg 35%
    21:00 +23°C° 0 mm 4 mps 702 mmHg 35%
    22:00 +24°C° 0 mm 3 mps 702 mmHg 35%
    23:00 +23°C° 0 mm 2 mps 702 mmHg 35%

    Tomorrow, 20 August, Tuesday

    Time Temperature Precipitation Wind Pressure Humidity
    00:00 +21°C° 0 mm 2 mps 701 mmHg 36%
    01:00 +20°C° 0 mm 2 mps 701 mmHg 37%
    02:00 +19°C° 0 mm 2 mps 700 mmHg 37%
    03:00 +19°C° 0 mm 2 mps 700 mmHg 36%
    04:00 +20°C° 0 mm 2 mps 700 mmHg 34%
    05:00 +20°C° 0 mm 3 mps 700 mmHg 32%
    06:00 +23°C° 0 mm 2 mps 701 mmHg 28%
    07:00 +26°C° 0 mm 2 mps 701 mmHg 24%
    08:00 +28°C° 0 mm 2 mps 702 mmHg 20%
    09:00 +30°C° 0 mm 1 mps 702 mmHg 17%
    10:00 +32°C° 0 mm 1 mps 702 mmHg 15%
    11:00 +35°C° 0 mm 1 mps 702 mmHg 12%
    12:00 +35°C° 0 mm 1 mps 701 mmHg 11%
    13:00 +36°C° 0 mm 1 mps 701 mmHg 10%
    14:00 +37°C° 0 mm 1 mps 701 mmHg 9%
    15:00 +37°C° 0 mm 1 mps 700 mmHg 9%
    16:00 +37°C° 0 mm 1 mps 700 mmHg 9%
    17:00 +37°C° 0 mm 1 mps 700 mmHg 9%
    18:00 +34°C° 0 mm 2 mps 700 mmHg 12%
    19:00 +30°C° 0 mm 2 mps 700 mmHg 16%
    20:00 +26°C° 0 mm 2 mps 699 mmHg 19%
    21:00 +26°C° 0 mm 2 mps 699 mmHg 20%
    22:00 +25°C° 0 mm 2 mps 699 mmHg 20%
    23:00 +25°C° 0 mm 2 mps 699 mmHg 21%

    Day after tomorrow, 21 August, Wednesday

    Time Temperature Precipitation Wind Pressure Humidity
    00:00 +24°C° 0 mm 2 mps 698 mmHg 22%
    01:00 +23°C° 0 mm 2 mps 698 mmHg 23%
    02:00 +21°C° 0 mm 2 mps 698 mmHg 24%
    03:00 +21°C° 0 mm 2 mps 698 mmHg 25%
    04:00 +21°C° 0 mm 2 mps 698 mmHg 25%
    05:00 +21°C° 0 mm 1 mps 697 mmHg 26%
    06:00 +24°C° 0 mm 1 mps 698 mmHg 22%
    07:00 +27°C° 0 mm 1 mps 698 mmHg 19%
    08:00 +30°C° 0 mm 1 mps 699 mmHg 16%
    09:00 +31°C° 0 mm 2 mps 699 mmHg 14%
    10:00 +34°C° 0 mm 2 mps 699 mmHg 12%
    11:00 +36°C° 0 mm 2 mps 699 mmHg 11%
    12:00 +37°C° 0 mm 3 mps 699 mmHg 10%
    13:00 +38°C° 0 mm 3 mps 699 mmHg 9%
    14:00 +40°C° 0 mm 4 mps 698 mmHg 8%
    15:00 +40°C° 0 mm 4 mps 698 mmHg 8%
    16:00 +38°C° 0 mm 4 mps 698 mmHg 9%
    17:00 +39°C° 0 mm 5 mps 698 mmHg 9%
    18:00 +35°C° 0 mm 4 mps 698 mmHg 12%
    19:00 +30°C° 0 mm 3 mps 698 mmHg 15%
    20:00 +27°C° 0 mm 2 mps 697 mmHg 18%
    21:00 +26°C° 0 mm 2 mps 697 mmHg 19%
    22:00 +25°C° 0 mm 2 mps 697 mmHg 20%
    23:00 +25°C° 0 mm 3 mps 697 mmHg 21%

    22 August, Thursday

    Time Temperature Precipitation Wind Pressure Humidity
    00:00 +24°C° 0 mm 3 mps 697 mmHg 22%
    01:00 +22°C° 0 mm 3 mps 697 mmHg 23%
    02:00 +21°C° 0 mm 3 mps 697 mmHg 24%
    03:00 +21°C° 0 mm 3 mps 697 mmHg 24%
    04:00 +21°C° 0 mm 3 mps 697 mmHg 24%
    05:00 +21°C° 0 mm 3 mps 697 mmHg 24%
    06:00 +24°C° 0 mm 3 mps 697 mmHg 22%
    07:00 +26°C° 0 mm 3 mps 697 mmHg 20%
    08:00 +29°C° 0 mm 3 mps 698 mmHg 18%
    09:00 +30°C° 0 mm 3 mps 698 mmHg 16%
    10:00 +32°C° 0 mm 2 mps 698 mmHg 14%
    11:00 +35°C° 0 mm 2 mps 698 mmHg 13%
    12:00 +36°C° 0 mm 2 mps 698 mmHg 11%
    13:00 +37°C° 0 mm 3 mps 698 mmHg 10%
    14:00 +38°C° 0 mm 3 mps 698 mmHg 9%
    15:00 +38°C° 0 mm 4 mps 698 mmHg 10%
    16:00 +38°C° 0 mm 4 mps 698 mmHg 11%
    17:00 +39°C° 0 mm 5 mps 698 mmHg 11%
    18:00 +35°C° 0 mm 4 mps 697 mmHg 15%
    19:00 +30°C° 0 mm 3 mps 697 mmHg 19%
    20:00 +27°C° 0 mm 2 mps 697 mmHg 22%
    21:00 +26°C° 0 mm 2 mps 697 mmHg 24%
    22:00 +25°C° 0 mm 2 mps 697 mmHg 25%
    23:00 +25°C° 0 mm 3 mps 697 mmHg 26%

    23 August, Friday

    Time Temperature Precipitation Wind Pressure Humidity
    00:00 +24°C° 0 mm 3 mps 696 mmHg 27%
    01:00 +24°C° 0 mm 3 mps 696 mmHg 27%
    02:00 +22°C° 0 mm 3 mps 696 mmHg 28%
    03:00 +22°C° 0 mm 3 mps 696 mmHg 28%
    04:00 +22°C° 0 mm 3 mps 696 mmHg 29%
    05:00 +21°C° 0 mm 3 mps 696 mmHg 29%
    06:00 +25°C° 0 mm 3 mps 697 mmHg 26%
    07:00 +27°C° 0 mm 3 mps 697 mmHg 23%
    08:00 +29°C° 0 mm 3 mps 698 mmHg 20%
    09:00 +31°C° 0 mm 3 mps 698 mmHg 18%
    10:00 +34°C° 0 mm 3 mps 698 mmHg 17%
    11:00 +36°C° 0 mm 3 mps 698 mmHg 15%
    12:00 +37°C° 0 mm 3 mps 698 mmHg 13%
    13:00 +38°C° 0 mm 3 mps 698 mmHg 12%
    14:00 +39°C° 0 mm 3 mps 698 mmHg 10%
    15:00 +40°C° 0 mm 4 mps 698 mmHg 10%
    16:00 +40°C° 0 mm 5 mps 698 mmHg 10%
    17:00 +40°C° 0 mm 6 mps 698 mmHg 10%
    18:00 +36°C° 0 mm 5 mps 698 mmHg 15%
    19:00 +31°C° 0 mm 3 mps 698 mmHg 19%
    20:00 +28°C° 0 mm 2 mps 698 mmHg 24%
    21:00 +28°C° 0 mm 2 mps 698 mmHg 25%
    22:00 +27°C° 0 mm 2 mps 698 mmHg 25%
    23:00 +27°C° 0 mm 2 mps 698 mmHg 26%

    24 August, Saturday

    Time Temperature Precipitation Wind Pressure Humidity
    00:00 +27°C° 0 mm 2 mps 698 mmHg 26%
    01:00 +26°C° 0 mm 2 mps 698 mmHg 26%
    02:00 +26°C° 0 mm 2 mps 698 mmHg 26%
    03:00 +25°C° 0 mm 2 mps 698 mmHg 28%
    04:00 +24°C° 0 mm 2 mps 698 mmHg 30%
    05:00 +23°C° 0 mm 1 mps 698 mmHg 32%
    06:00 +25°C° 0 mm 1 mps 699 mmHg 28%
    07:00 +28°C° 0 mm 2 mps 699 mmHg 24%
    08:00 +30°C° 0 mm 2 mps 700 mmHg 20%
    09:00 +32°C° 0 mm 2 mps 700 mmHg 18%
    10:00 +35°C° 0 mm 2 mps 700 mmHg 16%
    11:00 +37°C° 0 mm 2 mps 700 mmHg 14%
    12:00 +38°C° 0 mm 2 mps 700 mmHg 13%
    13:00 +39°C° 0 mm 2 mps 700 mmHg 12%
    14:00 +40°C° 0 mm 2 mps 699 mmHg 10%
    15:00 +40°C° 0 mm 2 mps 699 mmHg 10%
    16:00 +40°C° 0 mm 2 mps 699 mmHg 10%
    17:00 +40°C° 0 mm 3 mps 699 mmHg 10%
    18:00 +37°C° 0 mm 2 mps 699 mmHg 14%
    19:00 +32°C° 0 mm 2 mps 699 mmHg 17%
    20:00 +29°C° 0 mm 2 mps 698 mmHg 21%
    21:00 +28°C° 0 mm 2 mps 698 mmHg 22%
    22:00 +28°C° 0 mm 2 mps 698 mmHg 23%
    23:00 +27°C° 0 mm 2 mps 698 mmHg 24%
    Show more